Weather Roundup
Issued by NWS Chicago, IL

Home | Current Version | Previous Version | Graphics & Text | Print | Product List | Glossary On
Versions: 1 2 3 4 5 6 7 8 9 10 11 12 13 14 15 16 17 18 19 20 21 22 23 24 25 26 27 28 29 30 31 32 33 34 35 36 37 38 39 40 41 42 43 44 45 46 47 48 49 50
000
NZUS59 KLOT 280108
HRRLOT

CHICAGO AREA WEATHER ROUNDUP
NATIONAL WEATHER SERVICE CHICAGO/ROMEOVILLE IL
800 PM CDT MON MAR 27 2017

NOTE: "FAIR" INDICATES FEW OR NO CLOUDS BELOW 12,000 FEET WITH NO
SIGNIFICANT WEATHER AND/OR OBSTRUCTIONS TO VISIBILITY.

* THESE STATIONS ARE NOT UNDER NWS QUALITY CONTROL. THEY ALSO MAY NOT
  REPORT WEATHER SUCH AS PRECIPITATION OR FOG.

ILZ005-006-012>014-019>023-280200-
NORTHEAST ILLINOIS

CITY           SKY/WX    TMP DP  RH WIND       PRES   REMARKS
OHARE          CLOUDY    44  38  79 NE9       29.94R
MIDWAY         CLOUDY    44  39  82 NE10      29.94R
AURORA         CLOUDY    49  45  86 NE8       29.93R
LANSING*       CLOUDY    41  40  97 NE9       29.94R
JOLIET*        CLOUDY    48  46  90 NE8       29.93R FOG
WAUKEGAN       CLOUDY    38  37  97 NE5       29.95R
DUPAGE AIRPORT CLOUDY    45  43  93 NE8       29.93R
WHEELING       CLOUDY    41  39  93 NE8       29.96R
KANKAKEE*      CLOUDY    46  45  96 NE10G16   29.92R FOG
MORRIS*        CLOUDY    50  46  88 NE3       29.91R FOG
LEWIS AIRPORT* CLOUDY    45  44  97 NE13      29.92S FOG
NORTHERLY ISL    N/A     40  38  93 N10         N/A
$$

WIZ051-052-058>065-066-070>072-280200-
SOUTHEAST WISCONSIN

CITY           SKY/WX    TMP DP  RH WIND       PRES   REMARKS
MILWAUKEE      CLOUDY    39  36  89 NE9       29.97R
KENOSHA*       CLOUDY    41  38  89 NE7       29.95R
RACINE*        CLOUDY    39  35  86 N12       29.98R
WAUKESHA       CLOUDY    37  36  93 E9        29.97R
WEST BEND      CLOUDY    37  37 100 E6        29.97R FOG
$$

INZ001>003-010>013-019-020-280200-
NORTHWEST INDIANA

CITY           SKY/WX    TMP DP  RH WIND       PRES   REMARKS
GARY*          CLOUDY    41  39  93 NE7       29.95R
MICHIGAN CITY* NOT AVBL
RENSSELAER*    NOT AVBL
VALPARAISO     CLOUDY    45  44  97 N9        29.92R FOG
$$

LMZ740>746-280200-
SOUTHERN LAKE MICHIGAN

STATION/POSITION TIME  SKY/WX   TEMP WIND        PRES    VSBY
                                AIR  DIR/SP/G
                 (UTC)          (F)  (DEG/KT/KT) (MB)    (MI)
HARRISON CRIB    0040            39  360/  8/  9   N/A
BURNHAM HARBOR   0100            39  360/  7/ 10   N/A
CALUMET HARBOR   0048            39  340/  7/ 10 1013.6R
BURNS HARBOR     0040            40   50/  9/ 11 1014.2R
MICHIGAN CITY    0040            39   30/ 12/ 14   N/A
$$

ABBREVIATIONS USED IN REMARKS
   TC - TEMPERATURE IN CELSIUS
  WCI - WIND CHILL INDEX
   HX - HEAT INDEX
  VSB - VISIBILITY
$$




USA.gov is the U.S. government's official web portal to all federal, state and local government web resources and services.